FW3330 Weather Reports


time (UTC)temp
F
wind
direction
speed
knots
gust
knots
rain 1hr
in
rain 24hr
in
rain mn
in
humidity
%
barometer
mb
20260906115323 72 42 0.0 0.0 0.00 0.00 0.00 100 1014.3
20260906114338 71 42 0.0 0.0 0.00 0.00 0.00 100 1014.2
20260906113325 71 42 0.0 0.0 0.00 0.00 0.00 100 1014.0
20260906112341 71 42 0.0 0.0 0.00 0.00 0.00 100 1014.1
20260906111331 71 42 0.0 0.0 0.00 0.00 0.00 100 1014.1
20260906110345 71 42 0.0 0.0 0.00 0.00 0.00 100 1014.0
20260906105339 71 42 0.0 0.0 0.00 0.00 0.00 100 1013.9
20260906104326 71 42 0.0 0.0 0.00 0.00 0.00 100 1013.9
20260906103340 71 42 0.0 0.0 0.00 0.00 0.00 100 1013.8
20260906102326 71 42 0.0 0.0 0.00 0.00 0.00 100 1013.7
20260906101402 71 42 0.0 0.0 0.00 0.00 0.00 100 1013.5
20260906100328 71 42 0.0 0.0 0.00 0.00 0.00 100 1013.4
20260906095342 71 42 0.0 0.0 0.00 0.00 0.00 100 1013.4
20260906094356 71 42 0.0 0.0 0.00 0.00 0.00 100 1013.1
20260906093326 72 42 0.0 0.0 0.00 0.00 0.00 100 1012.9
20260905225342 91 199 1.7 6.1 0.00 0.00 0.00 82 1013.8
20260905224331 92 198 0.0 4.3 0.00 0.00 0.00 79 1013.4
20260905223318 92 224 0.9 6.1 0.00 0.00 0.00 78 1013.4
20260905222331 93 192 0.9 4.3 0.00 0.00 0.00 78 1013.3
20260905221320 93 194 0.9 5.2 0.00 0.00 0.00 78 1013.3
20260905220357 93 41 0.0 0.0 0.00 0.00 0.00 76 1013.1
20260905215324 93 41 0.0 0.9 0.00 0.00 0.00 75 1013.0
20260905214359 93 41 1.7 3.5 0.00 0.00 0.00 75 1013.0
20260905213326 93 41 0.0 1.7 0.00 0.00 0.00 75 1013.1
20260905212400 93 42 0.9 3.5 0.00 0.00 0.00 73 1012.9
20260905211329 93 42 0.0 0.0 0.00 0.00 0.00 76 1012.8
20260905210344 93 42 0.0 1.7 0.00 0.00 0.00 77 1012.7
20260905205329 93 42 0.9 1.7 0.00 0.00 0.00 75 1012.7
20260905204344 94 42 0.9 3.5 0.00 0.00 0.00 75 1012.6
20260905203338 94 54 0.0 1.7 0.00 0.00 0.00 76 1012.6
20260905202324 94 155 0.0 1.7 0.00 0.00 0.00 75 1012.5
20260905201339 94 124 0.9 3.5 0.00 0.00 0.00 75 1012.7
20260905200326 94 118 0.9 4.3 0.00 0.00 0.00 75 1012.9
20260905195400 94 203 1.7 5.2 0.00 0.00 0.00 74 1013.1
20260905194327 94 276 1.7 4.3 0.00 0.00 0.00 75 1013.1
20260905193339 94 282 0.9 2.6 0.00 0.00 0.00 76 1013.3
20260905192333 94 285 1.7 5.2 0.00 0.00 0.00 77 1013.5
20260905191320 94 184 0.9 4.3 0.00 0.00 0.00 78 1013.6
20260905190353 93 266 0.9 4.3 0.00 0.00 0.00 78 1013.9
20260905185319 93 124 0.9 1.7 0.00 0.00 0.00 78 1014.1
20260905184333 94 120 0.0 3.5 0.00 0.00 0.00 78 1014.3
20260905183321 94 67 1.7 4.3 0.00 0.00 0.00 78 1014.4
20260905182357 93 218 0.9 3.5 0.00 0.00 0.00 77 1014.7
20260905181325 93 226 1.7 4.3 0.00 0.00 0.00 80 1014.8
20260905180341 92 249 0.9 3.5 0.00 0.00 0.00 79 1014.9
20260905175328 93 236 0.9 3.5 0.00 0.00 0.00 79 1015.0
20260905174317 92 239 0.9 5.2 0.00 0.00 0.00 81 1015.1
20260905173334 91 226 1.7 4.3 0.00 0.00 0.00 82 1015.1
20260905172319 91 17 0.9 1.7 0.00 0.00 0.00 84 1015.3
20260905171352 90 17 0.9 3.5 0.00 0.00 0.00 83 1015.4
20260905170348 90 254 0.9 1.7 0.00 0.00 0.00 83 1015.7
20260905165341 90 252 0.9 2.6 0.00 0.00 0.00 84 1015.8
20260905164330 90 219 0.9 1.7 0.00 0.00 0.00 84 1016.0
20260905163317 90 327 0.9 3.5 0.00 0.00 0.00 85 1016.2
20260905162331 90 180 1.7 1.7 0.00 0.00 0.00 85 1016.4
20260905161324 89 116 0.9 5.2 0.00 0.00 0.00 86 1016.4
20260905160356 89 339 0.9 1.7 0.00 0.00 0.00 86 1016.5
20260905155326 88 339 1.7 3.5 0.00 0.00 0.00 87 1016.8
20260905154357 88 339 0.9 2.6 0.00 0.00 0.00 87 1017.0
20260905153330 87 340 0.9 4.3 0.00 0.00 0.00 89 1017.0
20260905152320 86 341 0.9 3.5 0.00 0.00 0.00 89 1017.0
20260905151335 86 341 0.9 4.3 0.00 0.00 0.00 89 1017.1
20260905150325 86 342 0.9 4.3 0.00 0.00 0.00 90 1017.1
20260905145338 86 342 0.9 1.7 0.00 0.00 0.00 91 1017.1
20260905144324 85 342 0.9 1.7 0.00 0.00 0.00 92 1017.1
20260905143340 84 342 0.9 3.5 0.00 0.00 0.00 93 1017.1
20260905142328 84 341 0.9 3.5 0.00 0.00 0.00 93 1017.1
20260905141403 84 341 0.9 1.7 0.00 0.00 0.00 94 1017.0
20260905140329 84 341 0.9 3.5 0.00 0.00 0.00 95 1017.0
20260905135340 83 239 0.9 3.5 0.00 0.00 0.00 96 1017.0
20260905134329 82 244 0.0 3.5 0.00 0.00 0.00 98 1017.1
20260905133342 81 204 0.9 1.7 0.00 0.00 0.00 99 1017.1
20260905132328 80 204 0.0 0.9 0.00 0.00 0.00 100 1017.1
20260905131341 80 204 0.0 1.7 0.00 0.00 0.00 100 1017.1
20260905130335 79 200 0.0 0.9 0.00 0.00 0.00 100 1017.2
20260905125322 78 200 0.0 0.9 0.00 0.00 0.00 100 1017.2
20260905124336 78 200 0.0 1.7 0.00 0.00 0.00 100 1017.1
20260905123325 77 195 0.0 0.0 0.00 0.00 0.00 100 1017.1
20260905122337 77 195 0.0 0.0 0.00 0.00 0.00 100 1016.9
20260905121328 76 195 0.0 0.0 0.00 0.00 0.00 100 1016.9
20260905120342 76 195 0.0 0.0 0.00 0.00 0.00 100 1017.0